Location: Altleiningen
(49.5078°N, 8.0741°E)
Time: 20:13:40
(UTC+00:00)

NOSS 3-1 (A) - Pass Details

Date: 14 June 2025
Orbit: 639 x 1568 km, 63.4° (Epoch: 21 June)

Event Time Altitude Azimuth Distance (km) Brightness Sun altitude
Rises 23:15:54 0° 316° (NW) 3,756 7.4 -17.1°
Reaches altitude 10° 23:18:17 10° 316° (NW) 2,923 6.7 -17.1°
Maximum altitude 23:25:24 78° 232° (SW) 1,295 4.0 -17.2°
Enters shadow 23:32:34 17° 148° (SSE) 3,035 5.6 -17.2°
